Wind_Speed
3 3 4 5 5 6 7 7 7 7 7 7 7 7 7 8 8 9 9 10 10 11 11 12 12 12 11 11 11 11 10 9 8 8 7 6 6 6 5 4 3 3 2
3 4 5 5 6 7 7 7 7 7 7 8 8 8 8 9 9 10 11 11 12 12 12 13 13 13 12 12 12 12 11 11 10 9 8 8 7 7 6 5 5 4 3
5 5 6 6 6 7 7 8 8 8 8 8 8 9 9 10 11 11 12 12 12 12 13 13 14 14 14 13 13 13 13 13 12 10 9 9 8 8 7 6 6 5 4
6 6 6 7 7 8 8 8 8 8 8 9 9 9 10 11 12 12 12 12 12 13 13 14 14 15 15 15 15 14 14 15 14 12 11 10 10 9 8 8 7 6 5
6 6 7 7 8 8 8 8 8 8 9 10 10 11 11 12 12 12 12 13 13 14 14 15 15 15 15 15 15 15 15 16 16 14 13 12 11 10 9 9 8 7 6
5 6 7 7 7 7 8 8 8 8 9 10 11 11 12 12 12 13 13 14 14 15 15 15 16 15 15 15 15 15 15 16 17 16 15 14 12 12 11 10 10 8 7
5 6 7 7 7 7 7 8 8 9 10 11 11 12 12 12 12 13 13 14 15 15 15 15 15 16 16 16 15 16 16 17 17 18 17 16 14 13 12 11 11 9 9
6 6 7 6 6 7 7 8 9 10 10 11 12 12 12 13 13 14 15 15 15 15 15 16 15 15 16 16 16 16 17 18 18 18 17 16 15 15 14 13 12 10 9
6 6 6 5 6 7 7 8 9 10 11 11 12 13 13 14 14 15 15 16 16 16 16 15 15 15 16 16 17 18 18 19 19 19 18 17 16 16 15 13 12 11 10
7 6 5 5 6 7 8 9 10 10 11 12 12 13 13 14 14 15 16 15 15 15 16 15 15 15 15 16 17 18 18 19 19 19 18 18 18 16 15 14 13 12 11
7 6 5 6 6 7 8 10 10 11 11 12 13 13 14 14 15 15 16 16 16 16 16 16 16 16 16 16 16 17 18 19 19 19 19 19 19 18 16 15 14 13 13
6 6 5 6 7 8 9 10 10 11 12 12 13 13 14 15 15 16 17 17 17 17 17 17 17 17 17 17 17 17 17 18 19 19 19 20 20 20 18 17 15 14 13
6 6 6 7 8 9 9 10 11 11 12 13 14 14 15 16 16 17 17 17 18 18 18 18 17 17 17 18 18 18 18 19 19 20 19 20 20 20 19 18 16 15 14
6 6 6 7 8 8 9 10 11 12 13 14 14 15 15 16 17 17 18 18 18 18 18 18 17 17 17 18 18 18 19 19 19 20 20 20 20 20 20 19 18 16 15
6 6 6 7 7 8 9 11 12 13 13 14 15 15 16 17 18 19 19 19 19 19 19 18 18 17 17 17 18 19 19 20 20 20 20 21 21 21 21 20 19 18 16
6 6 6 7 8 8 10 11 12 13 13 15 15 16 17 18 18 19 20 20 20 20 19 18 18 18 18 18 18 18 19 20 20 20 21 21 21 22 22 21 20 19 18
6 6 6 7 8 9 10 11 12 13 14 15 15 16 17 18 19 19 20 20 20 20 19 18 18 18 18 18 18 17 18 19 20 20 21 22 22 23 23 22 21 21 20
6 6 6 7 8 9 10 11 12 13 14 15 16 16 17 18 19 20 20 20 20 20 19 18 17 17 17 16 17 17 17 19 19 21 22 22 23 23 24 23 22 21 22
6 6 7 7 8 9 10 11 13 14 15 16 16 17 18 19 20 20 20 20 20 20 19 18 17 17 16 15 15 15 16 17 19 20 21 23 24 24 24 24 23 22 22
6 7 7 7 8 10 11 12 14 14 15 16 17 18 18 19 20 20 20 20 20 20 19 18 18 17 16 15 14 14 14 15 17 19 20 22 24 24 24 24 24 24 23
6 7 7 8 9 10 12 13 15 15 16 16 17 18 19 19 20 20 20 21 20 20 19 19 18 17 16 15 14 14 14 14 15 17 19 21 24 25 25 25 25 24 23
5 6 7 9 10 11 13 14 15 16 16 16 17 18 19 19 20 20 21 21 21 20 20 19 18 17 16 15 14 13 13 14 15 16 18 20 23 24 26 26 26 26 25
5 6 7 8 10 12 13 14 15 16 16 17 17 18 19 20 20 20 21 21 21 20 20 19 18 17 16 14 13 12 12 13 14 15 16 19 21 22 24 26 26 27 26
5 7 8 10 11 12 14 15 15 16 16 17 17 18 19 19 20 20 21 21 21 21 20 19 18 17 16 14 13 12 12 12 13 14 16 18 20 22 24 25 26 26 27
6 8 9 11 12 14 15 15 16 17 17 18 18 19 19 19 20 20 20 21 21 21 20 20 19 18 16 14 13 12 11 11 12 13 15 17 19 22 23 24 25 27 27
7 9 10 11 13 14 15 16 17 17 18 18 19 19 19 19 20 20 20 20 20 20 20 20 18 17 15 13 12 12 11 11 11 12 14 16 18 20 22 23 25 26 27
Wind_Direction
286 288 294 295 295 296 297 296 298 300 302 299 301 298 290 287 287 287 288 287 284 279 274 271 273 272 266 257 251 249 248 249 250 249 252 256 257 258 263 262 261 249 257
284 291 298 299 299 298 299 299 299 304 304 301 301 300 296 294 294 293 290 290 287 280 278 278 275 272 266 259 252 248 246 247 247 248 250 251 250 251 252 249 251 244 252
283 291 298 304 302 299 298 302 305 306 304 306 308 305 301 300 298 295 294 292 289 285 280 280 277 273 267 262 257 254 248 245 246 248 249 248 247 247 247 245 244 246 254
279 285 292 301 303 302 301 304 305 308 305 306 307 305 303 303 300 297 297 293 288 287 286 281 279 272 267 263 260 258 251 245 246 246 247 247 246 245 243 243 242 246 253
283 288 292 299 302 301 304 306 307 310 312 310 308 308 308 305 302 299 297 294 291 288 286 284 279 275 267 264 262 259 255 249 245 245 247 245 244 242 240 242 243 245 249
298 297 298 301 301 302 306 309 312 318 319 317 314 313 311 309 306 302 298 296 294 291 289 285 280 275 271 266 263 259 257 251 245 245 246 245 243 241 239 240 241 242 245
304 306 310 308 304 304 307 312 316 319 320 318 317 317 317 315 312 308 305 301 298 294 290 286 280 275 272 265 262 261 257 252 248 246 245 243 240 240 239 240 240 240 242
308 309 313 311 311 313 312 312 315 318 318 319 319 319 319 317 315 312 310 306 301 298 294 289 282 277 272 266 263 261 257 253 249 248 243 242 239 239 240 240 240 238 240
312 310 306 309 316 318 317 317 320 321 321 321 320 320 319 319 318 316 313 310 306 302 298 293 286 279 275 270 264 261 260 255 251 247 242 239 239 238 238 240 238 236 238
312 309 306 314 325 328 329 329 326 326 326 326 325 324 322 321 320 319 316 313 309 304 302 297 290 282 277 273 267 262 259 254 250 245 241 238 238 238 237 239 236 234 236
307 302 306 315 324 329 328 329 330 330 330 330 329 327 325 324 322 319 317 314 310 306 302 297 291 285 280 275 270 265 259 252 248 244 241 238 236 237 235 235 234 233 233
305 302 303 311 317 322 327 331 332 332 333 332 329 327 326 325 324 321 318 315 311 308 304 299 293 287 280 276 271 265 259 253 248 244 241 239 235 235 234 233 233 233 233
297 298 303 311 318 324 329 333 334 335 335 334 331 329 327 326 326 324 321 318 314 310 306 302 296 290 282 276 271 266 261 255 248 244 241 237 233 232 233 232 232 232 231
294 297 306 315 322 327 332 336 336 337 336 335 333 331 330 329 328 326 325 321 316 312 308 304 299 294 286 279 272 267 261 257 251 245 240 235 233 230 230 230 230 231 229
297 301 310 317 323 329 334 336 335 334 336 336 335 335 333 331 330 327 326 324 320 315 311 307 302 296 291 285 276 268 261 254 250 246 240 236 233 230 229 228 227 227 225
299 302 309 317 321 325 330 333 334 333 335 336 336 336 334 332 331 330 328 326 322 319 315 310 304 299 294 287 280 269 261 253 248 244 241 237 234 230 227 226 225 223 221
303 304 309 319 322 322 326 330 332 333 334 335 335 335 335 335 334 333 332 329 326 323 320 314 308 303 297 290 282 272 261 253 247 243 240 236 234 230 226 225 225 222 220
307 312 317 323 325 326 329 331 331 333 334 335 334 334 335 336 337 336 335 333 330 328 325 321 315 308 301 293 284 276 263 253 248 243 239 235 231 229 227 224 224 221 220
308 315 318 323 327 330 333 333 333 333 334 334 334 335 335 336 337 337 337 336 334 332 329 325 320 314 305 297 287 279 267 254 248 243 239 234 229 227 227 225 223 222 219
312 317 319 325 331 334 335 335 334 333 333 333 333 334 336 337 338 338 338 338 337 335 331 327 324 319 311 301 291 281 270 258 251 245 240 234 229 226 224 224 224 222 218
311 317 322 323 327 331 332 333 333 333 332 332 332 334 336 337 337 338 338 339 339 337 334 330 326 323 316 305 295 284 272 260 252 246 241 234 229 226 222 222 223 221 218
311 321 327 327 327 329 332 333 334 334 333 333 334 335 335 336 336 337 338 338 338 338 337 334 329 325 318 309 297 287 274 261 253 247 241 234 229 226 223 220 221 220 219
313 324 329 332 333 335 333 332 332 332 332 333 334 336 336 337 336 336 337 338 338 338 338 336 332 328 322 313 303 291 278 263 255 249 242 234 230 226 221 221 221 221 219
314 321 326 328 329 330 332 333 332 331 331 330 332 334 335 336 336 336 337 338 338 338 338 336 334 330 325 317 307 295 284 272 259 249 241 234 228 224 223 222 221 220 219
311 316 320 323 325 328 330 332 332 331 331 331 331 331 333 334 335 335 336 337 338 338 338 338 336 334 328 321 311 299 288 277 262 251 240 235 229 225 225 225 222 222 221
308 314 319 321 324 327 329 330 330 331 332 332 333 333 332 332 333 334 335 335 336 337 338 339 337 336 332 326 318 308 295 283 266 251 240 235 231 229 227 226 223 222 222
Height
5872 5872 5873 5873 5873 5873 5873 5873 5872 5872 5872 5871 5871 5871 5871 5870 5870 5870 5870 5870 5870 5870 5870 5870 5871 5871 5871 5871 5871 5872 5872 5872 5873 5873 5873 5873 5873 5874 5874 5874 5874 5874 5874
5872 5872 5872 5872 5872 5872 5872 5872 5872 5871 5871 5871 5870 5870 5869 5869 5869 5869 5869 5868 5868 5868 5869 5869 5869 5869 5869 5869 5869 5870 5871 5871 5871 5871 5872 5872 5872 5873 5873 5873 5873 5874 5874
5872 5872 5872 5872 5872 5871 5871 5871 5871 5870 5870 5870 5869 5869 5868 5868 5868 5867 5867 5867 5867 5866 5866 5866 5867 5867 5867 5867 5868 5868 5869 5869 5870 5870 5870 5870 5871 5871 5872 5872 5872 5873 5873
5871 5871 5871 5871 5871 5870 5870 5870 5869 5869 5869 5868 5868 5868 5867 5867 5866 5866 5865 5865 5865 5864 5864 5864 5864 5864 5865 5865 5865 5866 5866 5867 5868 5868 5869 5869 5869 5870 5871 5871 5872 5872 5873
5870 5870 5870 5870 5870 5869 5869 5869 5868 5868 5868 5867 5867 5866 5866 5865 5864 5864 5863 5863 5862 5862 5862 5862 5862 5862 5862 5862 5863 5863 5864 5865 5865 5866 5867 5867 5868 5869 5869 5870 5870 5871 5872
5870 5869 5869 5869 5869 5869 5868 5868 5868 5867 5867 5866 5865 5865 5864 5863 5862 5862 5861 5860 5860 5859 5859 5859 5859 5859 5859 5859 5860 5861 5861 5862 5863 5863 5864 5865 5866 5867 5868 5868 5869 5870 5871
5869 5869 5868 5868 5868 5868 5868 5867 5867 5866 5866 5865 5864 5863 5862 5861 5861 5860 5859 5858 5857 5857 5856 5856 5856 5856 5856 5856 5857 5857 5858 5859 5860 5861 5862 5863 5864 5865 5866 5867 5868 5869 5869
5868 5868 5868 5868 5868 5867 5867 5867 5866 5865 5864 5864 5863 5862 5861 5860 5859 5858 5856 5855 5854 5853 5853 5852 5852 5852 5852 5853 5853 5854 5855 5856 5857 5858 5859 5860 5861 5863 5864 5865 5866 5867 5868
5868 5867 5867 5867 5867 5867 5866 5866 5865 5864 5863 5862 5861 5860 5859 5858 5857 5855 5854 5853 5851 5850 5850 5849 5849 5849 5849 5849 5850 5851 5851 5852 5853 5854 5856 5857 5859 5860 5862 5863 5864 5866 5867
5867 5867 5867 5867 5867 5866 5866 5865 5864 5863 5862 5861 5860 5859 5858 5856 5855 5853 5852 5850 5849 5848 5847 5846 5846 5845 5845 5846 5846 5847 5848 5849 5850 5851 5853 5854 5856 5857 5859 5861 5862 5864 5865
5866 5866 5866 5866 5866 5866 5865 5864 5863 5862 5861 5860 5859 5857 5856 5854 5853 5851 5850 5848 5846 5845 5844 5843 5842 5842 5842 5842 5842 5843 5844 5845 5846 5848 5850 5851 5853 5855 5857 5859 5860 5862 5863
5865 5865 5865 5865 5865 5865 5864 5863 5862 5861 5860 5859 5857 5856 5854 5853 5851 5849 5847 5845 5844 5842 5841 5839 5839 5838 5838 5838 5839 5839 5840 5841 5842 5844 5846 5848 5850 5852 5854 5856 5858 5860 5861
5864 5864 5864 5864 5864 5863 5863 5862 5861 5860 5859 5857 5856 5854 5852 5850 5849 5847 5845 5842 5840 5839 5837 5836 5835 5834 5834 5834 5835 5835 5836 5837 5839 5840 5842 5844 5846 5848 5851 5853 5855 5857 5859
5863 5863 5863 5863 5863 5862 5862 5861 5860 5859 5857 5856 5854 5853 5851 5849 5847 5844 5842 5840 5838 5836 5834 5832 5831 5830 5830 5830 5830 5831 5832 5833 5834 5836 5838 5840 5843 5845 5847 5850 5853 5855 5857
5862 5862 5862 5862 5862 5861 5860 5860 5859 5857 5856 5854 5852 5851 5849 5847 5844 5842 5839 5837 5834 5832 5830 5829 5827 5826 5826 5825 5825 5826 5827 5828 5830 5832 5834 5836 5839 5841 5844 5847 5850 5852 5855
5861 5861 5861 5861 5860 5860 5859 5858 5857 5856 5855 5853 5851 5849 5847 5845 5842 5839 5837 5834 5831 5829 5826 5825 5823 5822 5821 5820 5821 5821 5822 5823 5825 5827 5830 5832 5835 5838 5841 5844 5847 5849 5852
5860 5860 5860 5860 5859 5859 5858 5857 5856 5855 5853 5851 5849 5847 5845 5843 5840 5837 5834 5831 5828 5825 5823 5821 5819 5818 5816 5816 5816 5816 5817 5818 5820 5822 5824 5828 5831 5834 5837 5840 5843 5847 5850
5858 5858 5858 5858 5858 5858 5857 5856 5855 5853 5852 5850 5848 5846 5843 5841 5838 5835 5832 5829 5825 5822 5819 5817 5815 5814 5812 5811 5811 5811 5812 5814 5816 5818 5820 5823 5826 5830 5833 5837 5840 5843 5847
5857 5858 5858 5857 5857 5856 5855 5854 5853 5852 5850 5848 5846 5844 5841 5839 5836 5833 5830 5826 5823 5820 5817 5814 5812 5810 5808 5807 5807 5807 5807 5809 5811 5813 5816 5819 5822 5826 5829 5833 5837 5840 5844
5857 5857 5857 5856 5856 5855 5854 5853 5852 5850 5848 5847 5844 5842 5840 5837 5834 5831 5828 5825 5821 5818 5814 5811 5809 5807 5805 5803 5803 5803 5803 5805 5806 5808 5811 5814 5817 5821 5825 5829 5833 5837 5840
5856 5856 5856 5855 5855 5854 5853 5852 5850 5848 5847 5845 5843 5840 5838 5835 5832 5829 5826 5823 5819 5816 5812 5809 5806 5804 5802 5800 5799 5799 5800 5801 5802 5804 5807 5810 5813 5816 5821 5825 5829 5833 5837
5855 5855 5854 5854 5854 5853 5851 5850 5849 5847 5845 5843 5841 5839 5836 5833 5830 5827 5824 5821 5817 5814 5810 5807 5804 5801 5799 5797 5796 5796 5796 5798 5799 5800 5803 5805 5808 5811 5816 5820 5824 5829 5833
5853 5853 5853 5853 5852 5851 5850 5849 5847 5845 5843 5842 5839 5837 5834 5831 5828 5825 5822 5819 5815 5812 5808 5805 5802 5799 5796 5794 5793 5793 5793 5794 5795 5797 5799 5801 5804 5807 5811 5816 5820 5825 5829
5853 5852 5852 5852 5851 5850 5848 5847 5845 5843 5842 5840 5837 5835 5832 5829 5826 5823 5820 5817 5814 5810 5807 5803 5800 5797 5794 5792 5791 5790 5790 5790 5791 5793 5795 5797 5800 5803 5807 5811 5816 5820 5825
5851 5851 5851 5850 5849 5848 5847 5845 5843 5841 5839 5837 5835 5832 5830 5827 5824 5821 5818 5815 5812 5808 5805 5801 5798 5795 5792 5790 5789 5787 5787 5787 5788 5790 5791 5794 5797 5799 5803 5807 5811 5815 5820
5850 5850 5849 5849 5848 5846 5845 5843 5841 5839 5837 5835 5832 5830 5827 5825 5822 5819 5816 5813 5810 5807 5803 5800 5797 5794 5791 5788 5787 5785 5785 5785 5785 5786 5788 5790 5793 5796 5799 5803 5807 5811 5815